Regional Weather Roundup
Issued by NWS

Home | Current Version | Previous Version | Graphics & Text | Print | Product List | Glossary On
Versions: 1 2 3 4 5 6 7 8 9 10 11 12 13 14 15 16 17 18 19 20 21 22 23 24 25 26 27 28 29 30 31 32 33 34 35 36 37 38 39 40 41 42 43 44 45 46 47 48 49 50
000
ASUS43 KDMX 180106
RWRIA

WEATHER ROUNDUP FOR IOWA
NATIONAL WEATHER SERVICE DES MOINES IA
700 PM CST TUE JAN 17 2017

NOTE: "FAIR" INDICATES FEW OR NO CLOUDS BELOW 12,000 FEET WITH NO
SIGNIFICANT WEATHER AND/OR OBSTRUCTIONS TO VISIBILITY.

* - THESE STATIONS ARE NOT NWS STATIONS...THUS NOT UNDER NWS
QUALITY CONTROL.  THEY ALSO DO NOT REPORT WEATHER SUCH
AS PRECIPITATION OR FOG.

IAZ001>003-012>014-020>022-031>034-043>046-180200-
   NORTHWEST IOWA

CITY           SKY/WX    TMP DP  RH WIND       PRES   REMARKS
CARROLL *      CLOUDY    32  32 100 W9        30.08S WCI  24
CHEROKEE *     PTCLDY    26  26 100 S5        30.05S FOG     WCI  21
DENISON *      CLOUDY    28  28 100 S5        30.06F WCI  23
LE MARS *      CLEAR     30  28  93 S6        30.06R WCI  24
ORANGE CITY *  CLEAR     28  28 100 S3        30.03S
SHELDON *      CLEAR     28  28 100 SW7       30.01S WCI  21
SIOUX CITY     CLEAR     31  28  89 S6        30.06S WCI  25
SPENCER        CLEAR     27  24  89 SW7       30.03S WCI  19
STORM LAKE *   CLOUDY    28  27  93 SW12      30.05R FOG     WCI  18
$$

IAZ055>058-069>071-079>083-090>094-180200-
   SOUTHWEST IOWA

CITY           SKY/WX    TMP DP  RH WIND       PRES   REMARKS
ATLANTIC *     CLOUDY    30  30 100 SW8       30.11S FOG     WCI  23
AUDUBON *      CLOUDY    30  27  86 SW5       30.10S FOG     WCI  25
CLARINDA *     CLOUDY    32  30  93 W7        30.14S WCI  26
COUNCIL BLFS * CLEAR     28  28 100 S5        30.10S WCI  23
CRESTON *      CLOUDY    32  32 100 W8        30.11S WCI  25
HARLAN  *      CLOUDY    30  30 100 SW6       30.13S FOG     WCI  24
LAMONI         CLOUDY    34  32  92 W9        30.11R WCI  27
RED OAK *      CLOUDY    30  30 100 SW5       30.12S WCI  25
SHENANDOAH *   CLEAR     30  30 100 CALM      30.13S
$$

IAZ047>049-059>061-072>074-084-180200-
   CENTRAL IOWA

CITY           SKY/WX    TMP DP  RH WIND       PRES   REMARKS
AMES           CLOUDY    32  32 100 W7        30.09R FOG     WCI  26
ANKENY *       CLOUDY    34  32  93 W10       30.11R WCI  26
BOONE *        FOG       32  32 100 W13       30.07S VSB 1/4 WCI  22
CHARITON *     CLOUDY    34  34 100 W7        30.10S WCI  28
DES MOINES     CLOUDY    34  32  92 W9        30.10R FOG     WCI  27
GRINNELL*      CLOUDY    33  32  98 W8        30.08R FOG     WCI  26
KNOXVILLE *    CLOUDY    34  32  93 W7        30.09R FOG     WCI  28
MARSHALLTOWN   CLOUDY    33  33 100 W6        30.06R FOG     WCI  28
NEWTON *       CLOUDY    34  32  93 W10       30.08R FOG     WCI  26
PELLA *        CLOUDY    34  33  95 W8        30.11R FOG     WCI  27
PERRY *        CLOUDY    33  33 100 SW6       30.09S FOG     WCI  27
$$

IAZ004>006-015-016-023>025-035-036-180200-
   NORTH CENTRAL IOWA

CITY           SKY/WX    TMP DP  RH WIND       PRES   REMARKS
ALGONA *       CLEAR     30  30 100 SW7       30.03S FOG     WCI  23
CLARION *      FOG       32  32 100 W8        30.05S VSB 1/4 WCI  25
ESTHERVILLE    CLEAR     28  27  96 SW7       30.01F WCI  21
FORT DODGE *   CLOUDY    30  28  93 MISG      30.07S
MASON CITY     FOG       31  30  96 W14       30.04S VSB 1/2 WCI  21
FOREST CITY *  FOG       32  32 100 W7        30.03S VSB 1/4 WCI  26
WEBSTER CITY * FOG       32  32 100 W8        30.04F VSB 1/2 WCI  25
IOWA FALLS *   CLOUDY    34  32  94 W6        30.06S FOG     WCI  29
$$

IAZ007>011-017>019-026>030-037>042-050>054-066-180200-
   NORTHEAST IOWA

CITY           SKY/WX    TMP DP  RH WIND       PRES   REMARKS
CEDAR RAPIDS   CLOUDY    32  32 100 W12       30.05R FOG     WCI  23
CHARLES CITY * CLOUDY    34  34 100 NW10      30.03R FOG     WCI  26
CLINTON *      CLOUDY    34  33  96 W15       30.03R FOG     WCI  24
DECORAH *      CLOUDY    34  34 100 NW9       29.99S FOG     WCI  26
DUBUQUE        CLOUDY    33  32  96 W10       30.00R FOG     WCI  25
MONTICELLO *   CLOUDY    34  32  93 W12       30.02S FOG     WCI  25
OELWEIN *      FOG       32  32 100 NW13      30.03R VSB 3/4 WCI  22
WATERLOO       CLOUDY    33  32  96 W8        30.05R FOG     WCI  26
$$

IAZ064-065-067-068-078-180200-
   EAST CENTRAL IOWA

CITY           SKY/WX    TMP DP  RH WIND       PRES   REMARKS
DAVENPORT      CLOUDY    33  32  96 W17       30.04S FOG     WCI  22
IOWA CITY      CLOUDY    34  32  92 W12       30.08R FOG     WCI  25
MUSCATINE *    CLOUDY    36  32  87 W12       30.08S WCI  27
QUAD CITIES    CLOUDY    35  33  92 W10       30.04R FOG     WCI  27
$$

IAZ062-063-075>077-085>089-095>099-180200-
   SOUTHEAST IOWA

CITY           SKY/WX    TMP DP  RH WIND       PRES   REMARKS
BURLINGTON     CLOUDY    36  35  96 W8        30.08R WCI  30
FAIRFIELD *    CLOUDY    36  34  93 W12       30.08S FOG     WCI  27
FORT MADISON * CLOUDY    37  36  93 W7        30.10R WCI  32
KEOKUK *       CLOUDY    37  36  93 W8        30.09S WCI  31
OSKALOOSA *    CLOUDY    33  33  98 W10       30.09S FOG     WCI  25
OTTUMWA        CLOUDY    36  33  89 W9        30.08R FOG     WCI  29
WASHINGTON *   CLOUDY    34  34 100 NW10      30.10R FOG     WCI  26
$$

ABBREVIATIONS USED IN REMARKS
   TC - TEMPERATURES IN CELSIUS
  WCI - WIND CHILL INDEX
   HX - HEAT INDEX
  VSB - VISIBILITY
$$




USA.gov is the U.S. government's official web portal to all federal, state and local government web resources and services.